Location: Bethel Church
(38.0159°N, 88.7292°W)
Time: 07:50:40
(UTC+00:00)

Cosmos 1666 Rocket - Pass Details

Date: 08 December 2021
Orbit: 602 x 634 km, 82.5° (Epoch: 16 January)

Event Time Altitude Azimuth Distance (km) Brightness Sun altitude
Rises 12:07:44 0° 177° (S) 2,907 7.4 -9.9°
Reaches altitude 10° 12:09:58 10° 174° (S) 2,006 6.6 -9.5°
Maximum altitude 12:14:21 61° 94° (E) 722 4.2 -8.7°
Drops below altitude 10° 12:18:47 10° 15° (NNE) 2,024 6.1 -7.9°
Sets 12:21:03 0° 12° (NNE) 2,936 6.9 -7.5°
